Location: Mapua
(41.2500°S, 173.1000°E)
Time: 21:21:45
(UTC+12:00)

Tianhe-1 - Visible Passes

Search period start: 15 May 2021 00:00
Search period end: 25 May 2021 00:00
Orbit: 359 x 385 km, 41.5° (Epoch: 14 May)

Date Brightness Start Highest point End Pass type
(mag) Time Alt. Az. Time Alt. Az. Time Alt. Az.
18 May 4.3 06:28:57 10° NNE 06:29:51 11° NE 06:30:44 10° NE visible
19 May 3.1 06:59:39 10° NW 07:02:24 28° NNE 07:05:08 10° E visible
20 May 3.8 05:56:51 10° NNW 05:58:57 17° NNE 06:01:03 10° ENE visible
21 May 2.3 06:28:36 10° NW 06:31:34 39° NNE 06:34:33 10° E visible
22 May 3.1 05:28:15 24° NNE 05:28:15 24° NNE 05:30:41 10° E visible
22 May 1.2 07:01:14 10° WNW 07:04:24 78° NNE 07:07:31 10° E visible
23 May 1.6 05:59:58 40° NW 06:00:46 54° NNE 06:03:51 10° E visible
24 May 4.4 04:59:33 14° E 04:59:33 14° E 05:00:07 10° E visible
24 May 1.0 06:31:32 20° W 06:33:37 90° NNW 06:36:47 10° E visible
